Location: Firdgum
(53.2488°N, 5.5615°E)
Time: 13:19:48
(UTC+00:00)

Okean O Rocket - Pass Details

Date: 08 December 2019
Orbit: 624 x 644 km, 98.2° (Epoch: 16 January)

Event Time Altitude Azimuth Distance (km) Brightness Sun altitude
Rises 05:08:06 0° 17° (NNE) 2,929 5.1 -21.1°
Reaches altitude 10° 05:10:20 10° 22° (NNE) 2,019 4.3 -20.8°
Maximum altitude 05:14:40 56° 101° (ESE) 754 2.3 -20.2°
Drops below altitude 10° 05:18:59 10° 180° (S) 2,015 4.3 -19.5°
Sets 05:21:13 0° 185° (S) 2,921 5.1 -19.2°
